Find CP5

NORAD ID: 38763 Int'l Des: 2012-048 Owner: CALP Country: US operational
LEO

Aktuelle Ansicht

3D-Globus wird geladen...

Über CP5

Beschreibung wird geladen...

Nächste Überflüge

Passes for default location (London). Set your location on the main map for personalized predictions.

Höhenverlauf

Loading altitude history...

Zweizeiliger Elementsatz

1 38763U 12048F 26151.17691199 .00018936 00000-0 64348-3 0 9995
2 38763 64.6443 208.7899 0081537 181.7649 178.3205 15.27368647114167
Epoch: 31. Mai 2026 • Age: 5 hours

Aktueller Status

Höhe 541.0 km
Geschwindigkeit 7.56 km/s
Subsatellitenpunkt 5.18°N, 173.07°W
Startdatum 13. Sept. 2012
Alter 13.7 years
Typ other

Technische Details

Klassifizierung Payload
Masse 1.00 kg
Trockenmasse 1.00 kg
Gesamtmasse 1.00 kg
Länge 0.10 m
Durchmesser 0.10 m
Spannweite 0.20 m
Form Box+Ant
Hersteller CALP
Bus-Typ Cubesat 1U
Phasenstatus In Orbit
Besitzer/Staat CALP/US

Most Searched